Time,TemperatureF,DewpointF,PressureIn,WindDirection,WindDirectionDegrees,WindSpeedMPH,WindSpeedGustMPH,Humidity,HourlyPrecipIn,Conditions,Clouds,dailyrainin,SoftwareType,DateUTC
2015-03-05 00:13:00,76.0,68.0,30.07,East,99,17.0,-999.0,77,-99.99,,,-99.99,,2015-03-05 05:13:00,
2015-03-05 00:23:00,76.0,68.0,30.07,East,99,17.0,-999.0,77,-99.99,,,-99.99,,2015-03-05 05:23:00,
2015-03-05 00:43:00,76.0,68.0,30.06,East,101,17.0,-999.0,77,-99.99,,,-99.99,,2015-03-05 05:43:00,
2015-03-05 00:53:00,76.0,69.0,30.06,East,100,14.0,-999.0,78,-99.99,,,-99.99,,2015-03-05 05:53:00,
2015-03-05 01:12:00,76.0,68.0,30.06,East,101,16.0,-999.0,77,-99.99,,,-99.99,,2015-03-05 06:12:00,
2015-03-05 01:22:00,76.0,69.0,30.05,East,100,13.0,-999.0,78,-99.99,,,-99.99,,2015-03-05 06:22:00,
2015-03-05 01:42:00,76.0,68.0,30.05,ESE,105,18.0,-999.0,76,-99.99,,,-99.99,,2015-03-05 06:42:00,
2015-03-05 01:52:00,76.0,67.0,30.04,East,100,15.0,-999.0,75,-99.99,,,-99.99,,2015-03-05 06:52:00,
2015-03-05 02:12:00,76.0,68.0,30.03,ESE,107,15.0,-999.0,76,-99.99,,,-99.99,,2015-03-05 07:12:00,
2015-03-05 02:23:00,76.0,68.0,30.03,East,98,17.0,-999.0,76,-99.99,,,-99.99,,2015-03-05 07:23:00,
2015-03-05 02:42:00,76.0,67.0,30.02,ESE,106,19.0,-999.0,75,-99.99,,,-99.99,,2015-03-05 07:42:00,
2015-03-05 02:52:00,75.0,67.0,30.02,ESE,105,15.0,-999.0,75,-99.99,,,-99.99,,2015-03-05 07:52:00,
2015-03-05 03:02:00,75.0,67.0,30.02,ESE,105,15.0,-999.0,75,-99.99,,,-99.99,,2015-03-05 08:02:00,
2015-03-05 03:12:00,75.0,67.0,30.02,ESE,105,15.0,-999.0,75,-99.99,,,-99.99,,2015-03-05 08:12:00,
2015-03-05 03:22:00,75.0,67.0,30.01,ESE,110,19.0,-999.0,76,-99.99,,,-99.99,,2015-03-05 08:22:00,
2015-03-05 03:42:00,74.0,65.0,30.01,ESE,112,18.0,-999.0,74,-99.99,,,-99.99,,2015-03-05 08:42:00,
2015-03-05 03:52:00,74.0,65.0,30.01,ESE,112,18.0,-999.0,74,-99.99,,,-99.99,,2015-03-05 08:52:00,
2015-03-05 04:02:00,74.0,65.0,30.01,ESE,112,18.0,-999.0,74,-99.99,,,-99.99,,2015-03-05 09:02:00,
2015-03-05 04:22:00,74.0,66.0,30.01,East,99,13.0,-999.0,77,-99.99,,,-99.99,,2015-03-05 09:22:00,
2015-03-05 04:43:00,74.0,67.0,30.01,ESE,105,15.0,-999.0,80,-99.99,,,-99.99,,2015-03-05 09:43:00,
2015-03-05 04:53:00,74.0,68.0,30.01,ESE,105,15.0,-999.0,81,-99.99,,,-99.99,,2015-03-05 09:53:00,
2015-03-05 05:13:00,74.0,67.0,30.02,East,92,13.0,-999.0,80,-99.99,,,-99.99,,2015-03-05 10:13:00,
2015-03-05 05:23:00,74.0,67.0,30.02,East,92,13.0,-999.0,80,-99.99,,,-99.99,,2015-03-05 10:23:00,
2015-03-05 05:43:00,74.0,68.0,30.03,ESE,103,12.0,-999.0,81,-99.99,,,-99.99,,2015-03-05 10:43:00,
2015-03-05 05:53:00,74.0,68.0,30.03,ESE,103,13.0,-999.0,81,-99.99,,,-99.99,,2015-03-05 10:53:00,
2015-03-05 06:12:00,74.0,68.0,30.04,East,96,12.0,-999.0,82,-99.99,,,-99.99,,2015-03-05 11:12:00,
2015-03-05 06:23:00,74.0,67.0,30.04,ESE,103,16.0,-999.0,80,-99.99,,,-99.99,,2015-03-05 11:23:00,
2015-03-05 06:42:00,74.0,67.0,30.04,East,95,14.0,-999.0,80,-99.99,,,-99.99,,2015-03-05 11:42:00,
2015-03-05 06:52:00,75.0,68.0,30.05,ESE,102,15.0,-999.0,79,-99.99,,,-99.99,,2015-03-05 11:52:00,
2015-03-05 07:13:00,75.0,68.0,30.06,East,97,13.0,-999.0,79,-99.99,,,-99.99,,2015-03-05 12:13:00,
2015-03-05 07:23:00,75.0,68.0,30.07,East,101,12.0,-999.0,79,-99.99,,,-99.99,,2015-03-05 12:23:00,
2015-03-05 07:42:00,76.0,68.0,30.08,ESE,102,13.0,-999.0,77,-99.99,,,-99.99,,2015-03-05 12:42:00,
2015-03-05 07:52:00,76.0,68.0,30.08,ESE,106,15.0,-999.0,76,-99.99,,,-99.99,,2015-03-05 12:52:00,
2015-03-05 08:22:00,78.0,67.0,30.09,ESE,111,16.0,-999.0,70,-99.99,,,-99.99,,2015-03-05 13:22:00,
2015-03-05 08:32:00,78.0,67.0,30.09,ESE,111,16.0,-999.0,70,-99.99,,,-99.99,,2015-03-05 13:32:00,
2015-03-05 08:43:00,78.0,67.0,30.09,ESE,111,16.0,-999.0,70,-99.99,,,-99.99,,2015-03-05 13:43:00,
2015-03-05 08:52:00,78.0,67.0,30.09,ESE,102,17.0,-999.0,70,-99.99,,,-99.99,,2015-03-05 13:52:00,
2015-03-05 09:11:00,78.0,68.0,30.10,ESE,102,18.0,-999.0,71,-99.99,,,-99.99,,2015-03-05 14:11:00,
2015-03-05 09:22:00,78.0,67.0,30.10,East,90,22.0,-999.0,70,-99.99,,,-99.99,,2015-03-05 14:22:00,
2015-03-05 09:42:00,78.0,67.0,30.09,East,96,23.0,-999.0,68,-99.99,,,-99.99,,2015-03-05 14:42:00,
2015-03-05 09:53:00,78.0,67.0,30.09,East,96,23.0,-999.0,68,-99.99,,,-99.99,,2015-03-05 14:53:00,
2015-03-05 10:02:00,78.0,67.0,30.09,East,96,23.0,-999.0,68,-99.99,,,-99.99,,2015-03-05 15:02:00,
2015-03-05 10:23:00,79.0,68.0,30.09,East,91,23.0,-999.0,69,-99.99,,,-99.99,,2015-03-05 15:23:00,
2015-03-05 10:43:00,79.0,68.0,30.09,East,92,21.0,-999.0,70,-99.99,,,-99.99,,2015-03-05 15:43:00,
2015-03-05 10:54:00,79.0,68.0,30.09,East,92,21.0,-999.0,70,-99.99,,,-99.99,,2015-03-05 15:54:00,
2015-03-05 11:14:00,79.0,68.0,30.09,East,98,20.0,-999.0,68,-99.99,,,-99.99,,2015-03-05 16:14:00,